Regional Weather Roundup
Issued by NWS Goodland, KS

Home | Current Version | Previous Version | Text Only | Print | Product List | Glossary Off
Versions: 1 2 3 4 5 6 7 8 9 10 11 12 13 14 15 16 17 18 19 20 21 22 23 24 25 26 27 28 29 30 31 32 33 34 35 36 37 38 39 40 41 42 43 44 45 46 47 48 49 50

000
ASUS43 KGLD 230708
RWRGLD

GOODLAND FORECAST AREA HOURLY WEATHER ROUNDUP
NATIONAL WEATHER SERVICE GOODLAND KS
100 AM MDT SUN JUL 23 2017

...OFFICIAL OBSERVATIONS...

CITY           SKY/WX    TMP DP  RH WIND       PRES   REMARKS
GOODLAND KS    PTCLDY    62  55  77 W5        30.11S
HILL CITY KS   CLEAR     69  67  93 CALM      30.02R
IMPERIAL NEB   CLEAR     64  54  69 W5        30.09F
MCCOOK NEB     CLEAR     63  61  93 W3        30.04F
AKRON CO       CLEAR     67  50  54 S12       30.18F
BURLINGTON CO  PTCLDY    62  55  77 SW3       30.15S
LIMON CO       CLOUDY    59  56  89 CALM      30.23F
$$

...UNOFFICIAL OBSERVATIONS...

CITY           SKY/WX    TMP DP  RH WIND       PRES   REMARKS
LENORA KS        N/A     69  32  25 MISG        N/A
NORTON KS      CLEAR     68  64  88 NW5       30.01
SHARON SPRINGS   N/A     61  53  74 CALM        N/A
TRENTON NEB      N/A     64  32  30 CALM        N/A
KIT CARSON CO    N/A     62  51  68 CALM        N/A
YUMA CO        FAIR      59  46  63 S7        30.15S
$$




USA.gov is the U.S. government's official web portal to all federal, state and local government web resources and services.